Weather in Yahotyn

Ukraine / Kyiv Region     50°16′59″N   31°45′39″E
temp.,
°C
wind,
m/s
gust,
m/s
humid.,
%
clouds,
%
prec.,
mm/h
press.,
hPa
HPBL,
m
7 march, sun
sun723:00−8w23790 0.0 102521
02:00−8wsw44820 0.0 102562
05:00−7sw510860 0.0 1022196
08:00−5sw7148615 0.0 1019421
11:000wsw81479100 0.0 10171083
14:00+1wsw8158295 0.0 10141238
17:00+1wsw7148197 0.0 10121016
20:000wsw6158298 0.0 1012836
8 march, mon
mon823:00−1wsw6158491 0.0 1011549
02:00−1wsw6148695 0.0 1010641
05:00−1w6129199 0.1 1009575
08:00−1wnw6109499 0.3 1010726
11:00−1wnw697981 0.1 10111142
14:000wnw487646 0.1 10111294
17:00−3w347947 0.0 101190
20:00−4wnw5127972 0.2 1014335
9 march, tue
tue923:00−6nw48870 0.0 1015140
02:00−7nw359015 0.0 1016106
05:00−8nw369174 0.0 1018107
08:00−7nnw379378 0.0 1020334
11:00−6nnw468421 0.0 1021642
14:00−5nnw358018 0.0 1022744
17:00−7nne228656 0.0 102221
20:00−9ene118578 0.0 102521
10 march, wed
wed1023:00−10se118387 0.0 102521
02:00−12ese118457 0.0 102621
05:00−12se228538 0.0 102621
08:00−10ese238967 0.0 102687
11:00−6se238380 0.0 1026253
14:00−5se238073 0.0 1026418
17:00−7ese22850 0.0 102521
20:00−10e22830 0.0 102621
11 march, thu
thu1123:00−10ese22800 0.0 102621
02:00−11ese22750 0.0 102621
05:00−12ese11740 0.0 102621
08:00−9sse22780 0.0 102722
11:00−5s23760 0.0 1026233
14:00−3sse35760 0.0 1026521
17:00−5se34790 0.0 102572
20:00−7sse457817 0.0 102576